PLEIADES 1B

Last updated on Sun Apr 12 2026 00:02:35 GMT+0000 (Coordinated Universal Time)

1 39019U 12068A 26101.46743853 .00000451 00000+0 10684-3 0 9990 2 39019 98.1965 177.4301 0001183 77.3170 282.8161 14.58556966711128
UTC large
Height (km)
Speed (km/s)
/
Latitude / Longitude
Inclination (degrees)
Orbital Period (minutes)
Azimuth
Elevation
Range (km)
Doppler Factor

Next 0 passes for location: London (51.5072 / 0.1276)

Sorry there are no passes over London.
PLEIADES 1B